Location: Banff
(51.1667°N, 115.5667°W)
Time: 07:01:25
(UTC+00:00)

S-56A Canister/Altair - Pass Details

Date: 03 December 2020
Orbit: 633 x 2499 km, 38.9° (Epoch: 21 January)

Event Time Altitude Azimuth Distance (km) Brightness Sun altitude
Rises 05:34:53 0° 264° (W) 5,211 12.1 -53.2°
Reaches altitude 10° 05:39:12 10° 256° (WSW) 3,890 11.3 -53.7°
Enters shadow 05:40:19 13° 252° (WSW) 3,562 11.0 -53.8°
Maximum altitude 05:47:06 30° 201° (SSW) 2,088 - -54.6°
Drops below altitude 10° 05:52:48 10° 142° (SE) 2,744 - -55.2°
Sets 05:55:19 0° 131° (SE) 3,486 - -55.4°
